Regional Weather Roundup
Issued by NWS

Home | Current Version | Previous Version | Graphics & Text | Print | Product List | Glossary On
Versions: 1 2 3 4 5 6 7 8 9 10 11 12 13 14 15 16 17 18 19 20 21 22 23 24 25 26 27
000
ASUS45 KBOU 201907
RWRCO

WEATHER ROUNDUP FOR COLORADO
NATIONAL WEATHER SERVICE DENVER/BOULDER CO
1200 PM MST MON FEB 20 2017

NOTE: "FAIR" INDICATES FEW OR NO CLOUDS BELOW 12000 FEET WITH NO
SIGNIFICANT WEATHER AND/OR OBSTRUCTIONS TO VISIBILITY.

COZ001>005-013-030-031-202000-
...NORTHWEST COLORADO...

CITY           SKY/WX    TMP DP  RH WIND       PRES   REMARKS
CRAIG          FAIR      38  31  76 NE7       30.18R
HAYDEN         FAIR      30  27  86 CALM      30.18R
MEEKER         FAIR      42  35  76 E3        30.19S
MOUNT WERNER   NOT AVBL
STEAMBOAT SPGS PTSUNNY   33  29  83 CALM      30.18S
WALDEN         NOT AVBL
$$

COZ006>008-011-202000-
...WEST CENTRAL VALLEYS...

CITY           SKY/WX    TMP DP  RH WIND       PRES   REMARKS
GRAND JUNCTION FAIR      51  37  58 S12       30.20F
MONTROSE       FAIR      49  32  52 W5        30.24F
EAGLE          PTSUNNY   45  25  45 W12       30.24S
RIFLE          FAIR      48  33  56 VRB3      30.21F
DELTA          FAIR      52  36  55 NE7       30.23F
NUCLA          NOT AVBL
$$

COZ017>023-064>068-202000-
...SOUTHWEST COLORADO...

CITY           SKY/WX    TMP DP  RH WIND       PRES   REMARKS
DURANGO        FAIR      43  27  53 CALM      30.26S
CORTEZ         PTSUNNY   45  35  68 NW8       30.28R
PAGOSA SPRINGS FAIR      37  25  60 SW5       30.27F
TELLURIDE      NOT AVBL
WOLF CREEK PAS FAIR      28   9  43 S3        30.32S
$$

COZ009-010-012-014-032>034-037-058>063-202000-
...CENTRAL COLORADO...

CITY           SKY/WX    TMP DP  RH WIND       PRES   REMARKS
ASPEN          FAIR      41  19  41 N7        30.22R
BUENA VISTA    FAIR      47  10  22 W10       30.16S
COPPER MTN     NOT AVBL
BERTHOUD PASS  FAIR      14   3  62 NW31G39   30.18S WCI  -7
COTTONWOOD PAS FAIR      37   3  23 SW22G37   30.17R
GUNNISON       FAIR      33  23  66 NE9       30.29R WCI  25
KREMMLING      FAIR      45  30  57 SW15      30.21F
LEADVILLE      FAIR      32  12  43 N10G18    30.21R WCI  24
MONARCH PASS   CLOUDY    19  18  93 W25G40    30.33R FOG     WCI   2
SALIDA         FAIR      49  13  23 W18G29    30.22S
SUNLIGHT       NOT AVBL
WILKERSON PASS FAIR      34  10  37 W6        30.21R WCI  29
$$

COZ069>075-202000-
...SAN LUIS VALLEY/SANGRE DE CRISTO MOUNTAINS...

CITY           SKY/WX    TMP DP  RH WIND       PRES   REMARKS
ALAMOSA        FAIR      44  18  35 S6        30.20R
LA VETA PASS   FAIR      36  18  48 NE26G37   30.18R
SAGUACHE       FAIR      46  19  34 NW23G30   30.19S
$$

COZ035-036-038>040-202000-
...NORTHERN COLORADO FRONT RANGE...

CITY           SKY/WX    TMP DP  RH WIND       PRES   REMARKS
DENVER INTL AP FAIR      57  11  16 VRB6      30.02S
DMNS CITY PARK   N/A     58   9  14 SE9       30.01S
AURORA         MOSUNNY   55  11  17 CALM      30.03S
FRONT RANGE AP NOT AVBL
ERIE MUNI ARPT FAIR      58   8  14 CALM      30.00S
BOULDER MUN AP FAIR      59  14  17 E7        29.99F
CENTENNIAL     FAIR      53   9  17 VRB3      30.03F
BROOMFIELD     MOSUNNY   57  12  17 E5        30.03S
FORT COLLINS   FAIR      60  16  18 S17       29.97S
LONGMONT       FAIR      62  14  15 SW25G32   30.00F
$$

COZ041-046-047-076>085-087-088-202000-
...PIKES PEAK/PALMER DIVIDE AND SOUTHERN FOOTHILLS...

CITY           SKY/WX    TMP DP  RH WIND       PRES   REMARKS
COLO. SPRINGS  FAIR      54   5  14 VRB6      30.06R
A. F. ACADEMY  FAIR      54   6  14 SE12G17   30.04S
SCHRIEVER AFB  FAIR      53   4  13 NW3       30.06S
ELLICOTT       FAIR     N/A N/A N/A NW16G25   30.04S
FALCON         FAIR      54   3  13 N6        30.07F
FORT CARSON    FAIR      55   6  14 VRB5      30.05R
LIMON          FAIR      55   9  16 NW21G29   30.02F
MONUMENT HILL  FAIR      48   9  20 N6        30.08F
TRINIDAD       FAIR      58   4  11 NW12G22   30.07F
$$

COZ042>045-048>051-090-091-202000-
...NORTHEAST COLORADO...

CITY           SKY/WX    TMP DP  RH WIND       PRES   REMARKS
GREELEY ARPT   FAIR      60  16  18 NW13G22   29.98F
AKRON          FAIR      58  11  15 N17G30    29.97F
BURLINGTON     FAIR      59  13  16 NW30G43   29.96F
WRAY           NOT AVBL
STERLING       FAIR      59  16  18 N22G29    29.94F
HOLYOKE        FAIR      61  21  21 N23G32    29.94F
FORT MORGAN    FAIR      60  11  14 NW14G21   29.99F
$$

COZ086-089-092>099-202000-
...SOUTHEAST COLORADO...

CITY           SKY/WX    TMP DP  RH WIND       PRES   REMARKS
PUEBLO         FAIR      61   7  11 VRB5      30.03F
LA JUNTA       FAIR      63   9  12 N15G22    30.02F
LAMAR          FAIR      65  12  12 N16G31    29.98S
SPRINGFIELD      N/A     61  14  16 N25G36    30.00F
$$




USA.gov is the U.S. government's official web portal to all federal, state and local government web resources and services.